Погода Белый

Погода Белый : погода сейчас, прогноз погоды и архив. Всё, что Вы хотите узнать о погоде Белый!

Поиск расширенной информации на нашем сайте:

Другие новости

Новости СМИ2

Главная страница сайта

Новости сайта

02.10.2013

Напоминаем, что на нашем новом сайте вы можете получить высокодетализированные прогнозы погоды по пунктам России, СНГ и мира (включающие важные для авиации метеовеличины, такие как направление и скорость ветра, видимость, явления погоды, количество и форма облачности, нижняя и верхняя граница облачности), а также ознакомиться с разнообразными материалами по авиационной метеорологии и подборкой полезных ссылок на эту тему.

Сайт Метеоцентр.Азия посвящён разработке технологий оптимизации авиаметеорологического обслуживания, включая проектирование и перспективное создание нескольких автоматизированных авиаметеорологических систем:
- система выпуска высокодетальных прогностических карт явлений погоды для нижнего воздушного пространства по России и ближнему зарубежью;
- система верификации прогнозов TAF (выпускаемых синоптиками официальных АМСГ РФ и ближнего зарубежья) и AUTOTAF (выпускаемых сайтом Метеоцентр.Азия) - выявление ошибок, онлайн-сопоставление с фактической погодой METAR, автоматическое внесение коррективов в прогнозы при резком отклонении фактической погоды от прогноза, подсчёт оправдываемости прогнозов по элементам и в целом;
- система обработки, анализа и отображения авиаметеорологической информации для применения провайдерами метеорологической информации.


Погода Белый - сегодня

Время (UTC), дата Ветер
(°,м/с) 
Видим.   Явления Облачность Т
(°С)
Тd
(°С)
f(%) Тe
(°С)
Pmin
(гПа)
dP
(гПа)
Po
(мм)
O2
(г/м3)
Тmin Tmax R s Состояние
почвы
15 25.02.17 270 (З) 4{13}  20000 м    9/9 600 м 
[Sc]
-1.8 -7.8 64 -5  1000.9  0.4  730  297           
18 25.02.17 300 (СЗ) 3{13}  4000 м  слаб. снег  10/10 300 м 
[Frnb|Ns]
-3.3 -7.6 72 -5  1002.9  1.8  731  299    -1.4  0.3     
21 25.02.17 310 (СЗ) 3{13}  10 км  {снег}  9/9 600 м 
[Sc]
-5.6 -7 90 -8  1005.8  2.5  733  302           
00 26.02.17 270 (З) 4{13}  10 км  {снег}  9/9 600 м 
[Sc]
-6.2 -8.9 81 -10  1008.5  2.5  735  304           
03 26.02.17 260 (З) 10 км  {ливн. осадки}  8/8 600 м 
[Sc]
-6.3 -8.5 84 -10  1009.4  0.9  736  304  -6.9    0.6     
06 26.02.17 250 (З) 20000 м  {ливн. осадки}  8/3 600 м средняя 
[Sc|Ac trans]
-7.3 -9.2 86 -9  1010  0.5  736  306  -7.3    0.3  28  равномерный
сухой снег
100% 
09 26.02.17 240 (ЮЗ) 20000 м    9/0 средняя, верхняя 
[Ac trans|Ci]
-2.1 -7.7 65 -5  1008.3  -1.1  735  299           
12 26.02.17 230 (ЮЗ) 4{10}  20000 м    9/9 600 м 
[Sc]
-0.9 -4.9 74 -3  1006.1  -2  734  297           
15 26.02.17 200 (Ю) 5{12}  4000 м  слаб. снег  10/10 300 м 
[Frnb|Ns]
-1.9 -3.1 91 -5  1003.2  -2.9  732  297      0.3     
18 26.02.17 230 (ЮЗ) 4{12}  4000 м  слаб. снег  10/10 300 м 
[Frnb|Ns]
-1.2 -2.5 91 -4  1001  -2  730  296    -0.4     
21 26.02.17 250 (З) 4000 м  слаб. снег  10/10 300 м 
[Frnb|Ns]
-0.4 -1 96 -3  999.8  -1.1  729  294           
00 27.02.17 250 (З) 4000 м  слаб. снег  10/10 300 м 
[Frnb|Ns]
+0.1 -0.4 96 -2  999.5  -0.2  729  294           
03 27.02.17 260 (З) 4000 м  слаб. снег  10/10 300 м 
[Frnb|Ns]
+0.3 -0.1 97 -2  999.9  0.4  729  294  -1.9       
06 27.02.17 270 (З) 20000 м  {снег}  9/9 300 м 
[Sc]
+0.9 +0.4 96 -1  1001.5  1.5  731  293  -1.9    30  равномерный
мокрый или
старый снег
100% 
09 27.02.17 300 (СЗ) 3{10}  20000 м    9/9 300 м 
[Sc]
+1.9 -0.2 86 1004.2  2.7  733  293           
12 27.02.17 310 (СЗ) 4000 м  слаб. ливневой снег  10/10 300 м кучево-дожд. 
[Cb calv]
+1.4 -0.4 88 +1  1007.3  2.9  735  295           
15 27.02.17 280 (З) 10 км  {ливн. осадки}  9/9 300 м 
[Sc]
+1 -1.6 83 -1  1009.8  2.4  737  296         
18 27.02.17 270 (З) 10 км  {ливн. осадки}  9/9 300 м 
[Sc]
+0.6 -2.5 80 1012.4  2.4  739  297    +2.8  0.5     
21 27.02.17 230 (ЮЗ) 10 км    9/9 300 м 
[Sc]
+0.1 -2.6 82 +1  1013.5  1.1  739  298           
00 28.02.17 190 (Ю) 10 км    9/9 300 м 
[Sc]
-0.3 -3.5 79 1014.5  0.9  740  299           
03 28.02.17 170 (Ю) 10 км    9/9 300 м 
[Sc]
-0.2 -1.6 90 -1  1014.5  0.1  740  299  -1         
06 28.02.17 180 (Ю) 20000 м    9/9 300 м 
[Sc]
+1.1 -0.5 89 1014.4  740  297  -1      29  равномерный
мокрый или
старый снег
100% 
09 28.02.17 170 (Ю) 20000 м    9/9 300 м 
[Sc]
+2.8 +0.9 87 +1  1013.6  -0.6  740  295           
12 28.02.17 190 (Ю) 5{10}  20000 м    9/9 300 м 
[Sc]
+5 +1.6 79 +3  1011.7  -1.6  738  292           
15 28.02.17 160 (Ю) 6{10}  20000 м    8/0 средняя, верхняя 
[Ac trans|Ci]
+4.9 +1.2 77 +2  1009.6  -2  737  291           
Время (UTC), дата Ветер
(°,м/с) 
Видим.   Явления Облачность Т
(°С)
Тd
(°С)
f(%) Тe
(°С)
Pmin
(гПа)
dP
(гПа)
Po
(мм)
O2
(г/м3)
Тmin Tmax R s Состояние
почвы

Для получения пояснительной информации подведите курсор к названию столбца.

ПОГОДА Белый - архив

Всё, что Вы хотите узнать о погоде Белый - удобно и подробно!

Выберите нужную дату (начиная с 1 января 2015* года) и нажмите кнопку "Найти".
Будут отображены архивные сводки погоды по пункту Белый, начиная с указанной даты.


Отображать данные в формате CSV (для использования в таблицах Excel)


Внимание! Наш архив погоды предназначен исключительно для личного некоммерческого использования в познавательных целях. Если Вам необходимы официальные справки о состоянии погоды (для производственных, юридических, коммерческих и т.п. целей), обращайтесь в органы Росгидромета.

*Примечание: данная дата относится к архиву по метеостанциям СССР (Россия, СНГ, Балтия).
Архив по метеостанциям Зарубежной Европы и Азии (кроме Китая) хранится 10 дней, по другим регионам земного шара (Китай, Африка, Америка, Австралия, Океания) - 1 день.

Белый - район местоположения метеостанции


Название, широта, долгота, высота метеостанции:
Белый 55.9°ш. 32.9°д. 222 м над ур. моря [Российская Федерация]

Дополнительная информация

В oтличие oт бoльшинства пoгoдных сайтoв мы публикуем пoдрoбную метеoинфoрмацию в детальнoм прoфессиoнальнoм фoрмате.

Характеристики температуры и влажнoсти вoздуха измеряются на высoте 2 м в тени вдали oт зданий и деревьев.
Скoрoсть ветра измеряется на высoте 10 м (на урoвне рoста челoвека скoрoсть ветра ниже в 1.5-2 раза). Если метеoстанция нахoдится в гoрoде или в лесу, тo скoрoсть ветра занижена на 2-4 м/с пo сравнению с oткрытым местoм. Скoрoсть ветра над акватoриями крупных рек и oзёр, а также на вершинах хoлмoв на 2-5 м/с выше, чем в oбычных услoвиях.
Атмoсфернoе давление в разных тoчках местнoсти мoжет значительнo oтличаться oт давления на метеoстанции, в зависимoсти oт услoвий рельефа (при пoдъёме на 10 м давление пoнижается примернo на 1 мм рт.ст.).